Location: Bush Observatory
(40.2653°N, 94.3194°W)
Time: 14:56:00
(UTC-05:00)

Iridium 13 - Visible Passes

Search period start: 26 July 2016 00:00
Search period end: 05 August 2016 00:00
Orbit: 776 x 779 km, 86.4° (Epoch: 26 July)

Date Brightness Start Highest point End Pass type
(mag) Time Alt. Az. Time Alt. Az. Time Alt. Az.
26 Jul 6.4 00:38:43 10° N 00:42:51 42° NE 00:42:51 42° NE visible
26 Jul 7.4 02:20:26 10° NW 02:23:19 19° WNW 02:23:19 19° WNW visible
27 Jul 7.0 00:05:43 10° NNE 00:09:20 25° ENE 00:09:20 25° ENE visible
27 Jul 6.8 01:46:06 10° NNW 01:49:48 32° WNW 01:49:48 32° WNW visible
27 Jul 7.6 23:33:28 10° NE 23:35:50 14° ENE 23:35:50 14° ENE visible
28 Jul 6.2 01:12:14 10° N 01:16:18 51° NW 01:16:18 51° NW visible
29 Jul 6.1 00:38:41 10° N 00:42:48 53° NNE 00:42:48 53° NNE visible
29 Jul 7.8 02:21:34 10° NW 02:23:16 13° WNW 02:23:16 13° WNW visible
30 Jul 6.6 00:05:27 10° NNE 00:09:19 34° ENE 00:09:19 34° ENE visible
30 Jul 7.3 01:46:36 10° NNW 01:49:46 23° WNW 01:49:46 23° WNW visible
30 Jul 7.3 23:32:39 10° NNE 23:35:49 20° ENE 23:35:49 20° ENE visible
31 Jul 6.6 01:12:29 10° NNW 01:16:17 38° NW 01:16:17 38° NW visible
31 Jul 7.8 23:01:18 10° ENE 23:02:20 11° ENE 23:02:20 11° ENE visible
01 Aug 6.1 00:38:45 10° N 00:42:48 55° NNW 00:42:48 55° NNW visible
02 Aug 6.3 00:05:20 10° N 00:09:20 45° NE 00:09:20 45° NE visible
02 Aug 7.7 01:47:23 10° NW 01:49:48 16° WNW 01:49:48 16° WNW visible
02 Aug 6.9 23:32:14 10° NNE 23:35:52 27° ENE 23:35:52 27° ENE visible
03 Aug 7.1 01:12:53 10° NNW 01:16:20 28° WNW 01:16:20 28° WNW visible
03 Aug 7.4 22:59:46 10° NE 23:02:24 16° ENE 23:02:24 16° ENE visible
04 Aug 6.4 00:38:56 10° N 00:42:52 46° NW 00:42:52 46° NW visible
